Weather History for Rutland, VT

Change the Weather History Date:

Tuesday, October 9, 2012

  Actual Average Record
Temperature  
Mean Temperature 45 °F -  
Max Temperature 54 °F - 83 °F (1970)
Min Temperature 36 °F - 26 °F (2000)
Degree Days  
Heating Degree Days 20    
Month to date heating degree days 92  
Since 1 July heating degree days 323  
Cooling Degree Days 0    
Month to date cooling degree days 0  
Year to date cooling degree days 411  
Moisture  
Dew Point 41 °F    
Average Humidity 79    
Maximum Humidity 92    
Minimum Humidity 66    
Precipitation  
Precipitation 0.00 in - 1.74 in (1976)
Month to date precipitation 0.77  
Year to date precipitation 19.00  
Sea Level Pressure  
Sea Level Pressure 30.22 in    
Wind  
Wind Speed 9 mph (SE)    
Max Wind Speed 16 mph    
Max Gust Speed 23 mph    
Visibility 10 miles    
Events      
T = Trace of Precipitation, MM = Missing Value Source: NWS Daily Summary

Daily Weather History Graph

Daily Weather History Graph

Search for Another Location

Airport:

Trip Planner

Search our weather history database for the weather conditions in past years. The results will help you decide how hot, cold, wet, or windy it might be!

Date:

Astronomy

Oct. 09, 2012 Rise Set
Actual Time 6:59 AM EDT 6:17 PM EDT
Civil Twilight 6:30 AM EDT 6:46 PM EDT
Nautical Twilight 5:57 AM EDT 7:19 PM EDT
Astronomical Twilight 5:24 AM EDT 7:52 PM EDT
Moon 12:22 AM EDT (10/9) 2:53 PM EDT (10/9)
Length of Visible Light 12h 16m
Length of Day
11h 18m
Last Quarter, 37% of the Moon is Illuminated
Oct 9
Last Quarter
Oct 15
New
Oct 21
First Quarter
Oct 29
Full
Nov 6
Last Quarter

Hourly Weather History & Observations

Time (EDT) Temp. Windchill Dew Point Humidity Pressure Visibility Wind Dir Wind Speed Gust Speed Precip Events Conditions
12:15 AM 39.2 °F 35.0 °F 35.6 °F 87% 30.29 in 10.0 mi SSE 5.8 mph - N/A   Clear
12:55 AM 39.2 °F 35.9 °F 35.6 °F 87% 30.27 in 10.0 mi ESE 4.6 mph - N/A   Clear
1:15 AM 39.2 °F 34.2 °F 35.6 °F 87% 30.28 in 10.0 mi ESE 6.9 mph - N/A   Clear
1:35 AM 37.4 °F 32.1 °F 35.6 °F 93% 30.28 in 10.0 mi SE 6.9 mph - N/A   Clear
1:55 AM 37.4 °F 33.8 °F 35.6 °F 93% 30.28 in 10.0 mi SE 4.6 mph - N/A   Clear
2:15 AM 37.4 °F 31.4 °F 35.6 °F 93% 30.28 in 10.0 mi SE 8.1 mph - N/A   Clear
2:55 AM 37.4 °F 33.8 °F 35.6 °F 93% 30.27 in 10.0 mi SE 4.6 mph - N/A   Clear
3:15 AM 35.6 °F 31.7 °F 35.6 °F 100% 30.27 in 10.0 mi SSE 4.6 mph - N/A   Clear
3:55 AM 37.4 °F 32.1 °F 35.6 °F 93% 30.27 in 10.0 mi SE 6.9 mph - N/A   Clear
4:15 AM 37.4 °F 32.1 °F 35.6 °F 93% 30.27 in 10.0 mi SE 6.9 mph - N/A   Clear
4:35 AM 37.4 °F 30.8 °F 35.6 °F 93% 30.28 in 10.0 mi ESE 9.2 mph - N/A   Clear
4:55 AM 37.4 °F 31.4 °F 35.6 °F 93% 30.28 in 10.0 mi SE 8.1 mph - N/A   Partly Cloudy
5:15 AM 37.4 °F 32.8 °F 35.6 °F 93% 30.28 in 10.0 mi SE 5.8 mph - N/A   Partly Cloudy
5:35 AM 37.4 °F 32.8 °F 35.6 °F 93% 30.28 in 10.0 mi SE 5.8 mph - N/A   Clear
5:55 AM 39.2 °F 35.0 °F 37.4 °F 93% 30.27 in 10.0 mi SE 5.8 mph - N/A   Clear
6:15 AM 39.2 °F 34.2 °F 37.4 °F 93% 30.27 in 10.0 mi SE 6.9 mph - N/A   Mostly Cloudy
6:55 AM 41.0 °F - 37.4 °F 87% 30.27 in 10.0 mi Calm Calm - N/A   Mostly Cloudy
7:15 AM 41.0 °F - 37.4 °F 87% 30.27 in 10.0 mi Calm Calm - N/A   Overcast
7:35 AM 41.0 °F 39.0 °F 39.2 °F 93% 30.27 in 10.0 mi SSE 3.5 mph - N/A   Overcast
7:55 AM 42.8 °F 41.1 °F 39.2 °F 87% 30.27 in 10.0 mi SSE 3.5 mph - N/A   Overcast
8:15 AM 44.6 °F 43.1 °F 39.2 °F 81% 30.28 in 10.0 mi South 3.5 mph - N/A   Overcast
8:35 AM 44.6 °F 39.2 °F 39.2 °F 81% 30.27 in 10.0 mi SSE 10.4 mph - N/A   Overcast
8:55 AM 46.4 °F 41.9 °F 41.0 °F 81% 30.27 in 10.0 mi SE 9.2 mph - N/A   Overcast
9:15 AM 48.2 °F - 41.0 °F 76% 30.27 in 10.0 mi SE 9.2 mph - N/A   Overcast
9:35 AM 50.0 °F - 42.8 °F 76% 30.27 in 10.0 mi SE 15.0 mph 19.6 mph N/A   Mostly Cloudy
9:55 AM 48.2 °F - 42.8 °F 82% 30.27 in 10.0 mi SSE 13.8 mph 18.4 mph N/A   Mostly Cloudy
10:15 AM 50.0 °F - 42.8 °F 76% 30.27 in 10.0 mi SE 13.8 mph - N/A   Overcast
10:35 AM 50.0 °F - 42.8 °F 76% 30.26 in 10.0 mi ESE 16.1 mph 20.7 mph N/A   Overcast
10:55 AM 50.0 °F - 42.8 °F 76% 30.26 in 10.0 mi SE 16.1 mph 21.9 mph N/A   Overcast
11:15 AM 51.8 °F - 42.8 °F 71% 30.26 in 10.0 mi SE 18.4 mph 24.2 mph N/A   Overcast
11:35 AM 51.8 °F - 42.8 °F 71% 30.26 in 10.0 mi SE 19.6 mph 24.2 mph N/A   Overcast
11:55 AM 51.8 °F - 42.8 °F 71% 30.25 in 10.0 mi ESE 15.0 mph 23.0 mph N/A   Overcast
12:15 PM 51.8 °F - 42.8 °F 71% 30.24 in 10.0 mi SE 17.3 mph 20.7 mph N/A   Overcast
12:35 PM 53.6 °F - 42.8 °F 67% 30.23 in 10.0 mi SE 16.1 mph 20.7 mph N/A   Overcast
1:15 PM 53.6 °F - 42.8 °F 67% 30.21 in 10.0 mi SE 13.8 mph - N/A   Overcast
1:35 PM 53.6 °F - 42.8 °F 67% 30.20 in 10.0 mi ESE 15.0 mph 20.7 mph N/A   Overcast
1:55 PM 53.6 °F - 42.8 °F 67% 30.20 in 10.0 mi SE 16.1 mph 20.7 mph N/A   Overcast
2:15 PM 53.6 °F - 42.8 °F 67% 30.19 in 10.0 mi SE 13.8 mph 19.6 mph N/A   Overcast
2:55 PM 53.6 °F - 42.8 °F 67% 30.19 in 10.0 mi ESE 13.8 mph - N/A   Overcast
3:15 PM 53.6 °F - 42.8 °F 67% 30.18 in 10.0 mi SE 13.8 mph 19.6 mph N/A   Overcast
3:35 PM 53.6 °F - 42.8 °F 67% 30.18 in 10.0 mi SE 17.3 mph - N/A   Overcast
3:55 PM 53.6 °F - 42.8 °F 67% 30.18 in 10.0 mi SSE 15.0 mph 18.4 mph N/A   Overcast
4:15 PM 53.6 °F - 42.8 °F 67% 30.17 in 10.0 mi SSE 15.0 mph 19.6 mph N/A   Overcast
4:35 PM 51.8 °F - 42.8 °F 71% 30.17 in 10.0 mi SE 11.5 mph - N/A   Overcast
4:55 PM 51.8 °F - 42.8 °F 71% 30.18 in 10.0 mi SE 9.2 mph - N/A   Overcast
5:15 PM 51.8 °F - 42.8 °F 71% 30.17 in 10.0 mi ESE 11.5 mph - N/A   Mostly Cloudy
5:35 PM 51.8 °F - 42.8 °F 71% 30.17 in 10.0 mi SSE 5.8 mph - N/A   Overcast
5:55 PM 51.8 °F - 42.8 °F 71% 30.16 in 10.0 mi South 6.9 mph - N/A   Overcast
6:15 PM 51.8 °F - 42.8 °F 71% 30.16 in 10.0 mi SSE 8.1 mph - N/A   Mostly Cloudy
6:35 PM 50.0 °F - 42.8 °F 76% 30.16 in 10.0 mi SSE 9.2 mph - N/A   Mostly Cloudy
6:55 PM 50.0 °F - 44.6 °F 82% 30.16 in 10.0 mi SSW 5.8 mph - N/A   Overcast
7:15 PM 50.0 °F - 44.6 °F 82% 30.15 in 10.0 mi SE 5.8 mph - N/A   Overcast
7:35 PM 50.0 °F - 42.8 °F 76% 30.15 in 10.0 mi SSE 8.1 mph - N/A   Overcast
7:55 PM 50.0 °F - 44.6 °F 82% 30.15 in 10.0 mi South 6.9 mph - N/A   Overcast
8:15 PM 50.0 °F - 44.6 °F 82% 30.15 in 10.0 mi South 9.2 mph - N/A   Overcast
8:35 PM 50.0 °F - 44.6 °F 82% 30.15 in 10.0 mi South 6.9 mph - N/A   Mostly Cloudy
8:55 PM 50.0 °F - 44.6 °F 82% 30.14 in 10.0 mi South 6.9 mph - N/A   Overcast
9:15 PM 50.0 °F - 44.6 °F 82% 30.14 in 10.0 mi SE 11.5 mph - N/A   Overcast
9:35 PM 50.0 °F - 44.6 °F 82% 30.14 in 10.0 mi SSE 8.1 mph - N/A   Overcast
9:55 PM 50.0 °F - 42.8 °F 76% 30.13 in 10.0 mi SSE 8.1 mph - N/A   Overcast
10:35 PM 50.0 °F - 44.6 °F 82% 30.12 in 10.0 mi South 8.1 mph - N/A   Overcast
10:55 PM 50.0 °F - 44.6 °F 82% 30.12 in 10.0 mi SSE 11.5 mph - N/A   Overcast
11:15 PM 50.0 °F - 44.6 °F 82% 30.11 in 10.0 mi SSE 9.2 mph - N/A   Overcast
11:35 PM 50.0 °F - 44.6 °F 82% 30.11 in 10.0 mi SSE 9.2 mph 18.4 mph N/A   Overcast
11:55 PM 50.0 °F - 44.6 °F 82% 30.11 in 10.0 mi SE 10.4 mph - N/A   Overcast